When you browse on this site, cookies collect data to enhance your experience and personalize the content and advertising you see.
Visit our Privacy Policy to learn more. By continuing to use the site, you agree to this use of cookies and data.
  • In Lithuania
  • List of Countries
  • For 7 days
  • Water Temperature
  • Weather Map
  • Weather Widgets
  • user-avatar
    Login

    Hourly Weather San Cristóbal

    Today, 31 May, Sunday

    Time Temperature Precipitation Wind Pressure Humidity
    00:00 +21°C° 0.3 mm 1 mps 673 mmHg 92%
    01:00 +21°C° 0 mm 1 mps 672 mmHg 92%
    02:00 +20°C° 0 mm 1 mps 672 mmHg 90%
    03:00 +20°C° 0 mm 1 mps 672 mmHg 89%
    04:00 +20°C° 0 mm 1 mps 672 mmHg 87%
    05:00 +19°C° 0 mm 0 mps 672 mmHg 84%
    06:00 +20°C° 0 mm 0 mps 673 mmHg 81%
    07:00 +21°C° 0 mm 0 mps 674 mmHg 78%
    08:00 +25°C° 0 mm 1 mps 674 mmHg 71%
    09:00 +26°C° 0 mm 1 mps 675 mmHg 64%
    10:00 +28°C° 0 mm 2 mps 675 mmHg 57%
    11:00 +28°C° 0.4 mm 2 mps 675 mmHg 59%
    12:00 +28°C° 0.4 mm 2 mps 674 mmHg 60%
    13:00 +28°C° 0.4 mm 2 mps 674 mmHg 62%
    14:00 +27°C° 0.9 mm 2 mps 673 mmHg 70%
    15:00 +26°C° 0.9 mm 1 mps 673 mmHg 78%
    16:00 +25°C° 0.9 mm 1 mps 672 mmHg 85%
    17:00 +24°C° 1 mm 1 mps 672 mmHg 89%
    18:00 +23°C° 1 mm 1 mps 672 mmHg 93%
    19:00 +21°C° 1 mm 1 mps 672 mmHg 97%
    20:00 +21°C° 1.3 mm 1 mps 673 mmHg 97%
    21:00 +19°C° 1.3 mm 0 mps 673 mmHg 98%
    22:00 +19°C° 1.3 mm 0 mps 674 mmHg 98%
    23:00 +19°C° 1.9 mm 0 mps 673 mmHg 98%

    Tomorrow, 1 June, Monday

    Time Temperature Precipitation Wind Pressure Humidity
    00:00 +19°C° 1.9 mm 0 mps 673 mmHg 97%
    01:00 +21°C° 1.9 mm 1 mps 673 mmHg 97%
    02:00 +21°C° 0.3 mm 1 mps 673 mmHg 96%
    03:00 +21°C° 0.3 mm 1 mps 672 mmHg 95%
    04:00 +20°C° 0.3 mm 1 mps 672 mmHg 94%
    05:00 +21°C° 0 mm 1 mps 673 mmHg 92%
    06:00 +21°C° 0 mm 1 mps 673 mmHg 90%
    07:00 +21°C° 0 mm 1 mps 673 mmHg 88%
    08:00 +23°C° 0 mm 1 mps 674 mmHg 80%
    09:00 +25°C° 0 mm 1 mps 675 mmHg 71%
    10:00 +26°C° 0 mm 1 mps 675 mmHg 63%
    11:00 +27°C° 0.2 mm 2 mps 675 mmHg 63%
    12:00 +27°C° 0.2 mm 2 mps 674 mmHg 63%
    13:00 +28°C° 0.2 mm 2 mps 673 mmHg 63%
    14:00 +27°C° 0.4 mm 2 mps 673 mmHg 65%
    15:00 +27°C° 0.4 mm 2 mps 672 mmHg 68%
    16:00 +26°C° 0.4 mm 1 mps 672 mmHg 70%
    17:00 +25°C° 0.2 mm 1 mps 672 mmHg 77%
    18:00 +23°C° 0.2 mm 1 mps 672 mmHg 83%
    19:00 +21°C° 0.2 mm 1 mps 672 mmHg 90%
    20:00 +21°C° 0 mm 1 mps 672 mmHg 89%
    21:00 +21°C° 0 mm 1 mps 672 mmHg 87%
    22:00 +21°C° 0 mm 1 mps 673 mmHg 86%
    23:00 +21°C° 0 mm 1 mps 673 mmHg 84%

    Day after tomorrow, 2 June, Tuesday

    Time Temperature Precipitation Wind Pressure Humidity
    00:00 +21°C° 0 mm 1 mps 672 mmHg 82%
    01:00 +20°C° 0 mm 1 mps 672 mmHg 81%
    02:00 +20°C° 0 mm 1 mps 672 mmHg 81%
    03:00 +20°C° 0 mm 1 mps 672 mmHg 82%
    04:00 +20°C° 0 mm 1 mps 672 mmHg 83%
    05:00 +21°C° 0 mm 1 mps 672 mmHg 79%
    06:00 +22°C° 0 mm 1 mps 673 mmHg 76%
    07:00 +23°C° 0 mm 1 mps 673 mmHg 73%
    08:00 +25°C° 0 mm 1 mps 674 mmHg 67%
    09:00 +27°C° 0 mm 1 mps 674 mmHg 61%
    10:00 +29°C° 0 mm 1 mps 675 mmHg 55%
    11:00 +29°C° 0.3 mm 2 mps 674 mmHg 55%
    12:00 +29°C° 0.3 mm 2 mps 674 mmHg 56%
    13:00 +29°C° 0.3 mm 2 mps 673 mmHg 57%
    14:00 +29°C° 0.6 mm 2 mps 672 mmHg 60%
    15:00 +28°C° 0.6 mm 2 mps 672 mmHg 63%
    16:00 +28°C° 0.6 mm 1 mps 671 mmHg 66%
    17:00 +26°C° 0.4 mm 1 mps 671 mmHg 75%
    18:00 +24°C° 0.4 mm 1 mps 671 mmHg 83%
    19:00 +20°C° 0.4 mm 0 mps 671 mmHg 91%
    20:00 +20°C° 0.1 mm 0 mps 671 mmHg 92%
    21:00 +21°C° 0.1 mm 1 mps 672 mmHg 92%
    22:00 +21°C° 0.1 mm 1 mps 672 mmHg 92%
    23:00 +21°C° 0.3 mm 1 mps 672 mmHg 93%

    3 June, Wednesday

    Time Temperature Precipitation Wind Pressure Humidity
    00:00 +21°C° 0.3 mm 1 mps 672 mmHg 93%
    01:00 +21°C° 0.3 mm 1 mps 671 mmHg 94%
    02:00 +21°C° 0.1 mm 1 mps 671 mmHg 94%
    03:00 +20°C° 0.1 mm 1 mps 671 mmHg 95%
    04:00 +20°C° 0.1 mm 1 mps 671 mmHg 95%
    05:00 +21°C° 0 mm 1 mps 671 mmHg 93%
    06:00 +22°C° 0 mm 1 mps 672 mmHg 91%
    07:00 +22°C° 0 mm 1 mps 672 mmHg 89%
    08:00 +24°C° 0.3 mm 1 mps 673 mmHg 83%
    09:00 +25°C° 0.3 mm 1 mps 673 mmHg 77%
    10:00 +27°C° 0.3 mm 2 mps 673 mmHg 71%
    11:00 +27°C° 0.5 mm 2 mps 673 mmHg 67%
    12:00 +28°C° 0.5 mm 2 mps 672 mmHg 64%
    13:00 +28°C° 0.5 mm 2 mps 672 mmHg 61%
    14:00 +28°C° 0.5 mm 2 mps 671 mmHg 62%
    15:00 +28°C° 0.5 mm 2 mps 671 mmHg 64%
    16:00 +27°C° 0.5 mm 1 mps 671 mmHg 66%
    17:00 +25°C° 0.4 mm 1 mps 671 mmHg 74%
    18:00 +24°C° 0.4 mm 1 mps 671 mmHg 81%
    19:00 +22°C° 0.4 mm 1 mps 671 mmHg 89%
    20:00 +22°C° 0.2 mm 1 mps 671 mmHg 90%
    21:00 +21°C° 0.2 mm 1 mps 672 mmHg 91%
    22:00 +21°C° 0.2 mm 1 mps 672 mmHg 92%
    23:00 +21°C° 0.7 mm 1 mps 672 mmHg 92%

    4 June, Thursday

    Time Temperature Precipitation Wind Pressure Humidity
    00:00 +21°C° 0.7 mm 1 mps 671 mmHg 93%
    01:00 +21°C° 0.7 mm 1 mps 671 mmHg 94%
    02:00 +21°C° 0.9 mm 1 mps 671 mmHg 95%
    03:00 +21°C° 0.9 mm 1 mps 671 mmHg 95%
    04:00 +21°C° 0.9 mm 1 mps 671 mmHg 96%
    05:00 +21°C° 0.2 mm 1 mps 671 mmHg 95%
    06:00 +21°C° 0.2 mm 1 mps 672 mmHg 94%
    07:00 +22°C° 0.2 mm 1 mps 672 mmHg 92%
    08:00 +24°C° 0 mm 1 mps 673 mmHg 80%
    09:00 +26°C° 0 mm 1 mps 674 mmHg 68%
    10:00 +27°C° 0 mm 2 mps 674 mmHg 56%
    11:00 +28°C° 0.2 mm 2 mps 674 mmHg 55%
    12:00 +29°C° 0.2 mm 2 mps 673 mmHg 54%
    13:00 +29°C° 0.2 mm 2 mps 673 mmHg 53%
    14:00 +28°C° 0.5 mm 2 mps 673 mmHg 59%
    15:00 +28°C° 0.5 mm 1 mps 672 mmHg 64%
    16:00 +27°C° 0.5 mm 1 mps 672 mmHg 69%
    17:00 +25°C° 0.3 mm 1 mps 672 mmHg 76%
    18:00 +24°C° 0.3 mm 1 mps 672 mmHg 83%
    19:00 +20°C° 0.3 mm 0 mps 672 mmHg 91%
    20:00 +20°C° 0 mm 0 mps 672 mmHg 91%
    21:00 +19°C° 0 mm 0 mps 672 mmHg 91%
    22:00 +21°C° 0 mm 1 mps 673 mmHg 91%
    23:00 +21°C° 0 mm 1 mps 672 mmHg 91%

    5 June, Friday

    Time Temperature Precipitation Wind Pressure Humidity
    00:00 +21°C° 0 mm 1 mps 672 mmHg 91%
    01:00 +20°C° 0 mm 1 mps 672 mmHg 92%
    02:00 +20°C° 0 mm 1 mps 672 mmHg 92%
    03:00 +20°C° 0 mm 1 mps 671 mmHg 92%
    04:00 +20°C° 0 mm 1 mps 671 mmHg 92%
    05:00 +21°C° 0 mm 1 mps 672 mmHg 88%
    06:00 +22°C° 0 mm 1 mps 672 mmHg 84%
    07:00 +23°C° 0 mm 1 mps 673 mmHg 81%
    08:00 +25°C° 0 mm 2 mps 673 mmHg 69%
    09:00 +27°C° 0 mm 3 mps 674 mmHg 57%
    10:00 +29°C° 0 mm 3 mps 675 mmHg 46%
    11:00 +29°C° 0 mm 3 mps 674 mmHg 46%
    12:00 +29°C° 0 mm 3 mps 674 mmHg 47%
    13:00 +30°C° 0 mm 3 mps 673 mmHg 47%
    14:00 +29°C° 0.1 mm 2 mps 672 mmHg 50%
    15:00 +29°C° 0.1 mm 2 mps 672 mmHg 53%
    16:00 +28°C° 0.1 mm 2 mps 671 mmHg 56%
    17:00 +26°C° 0.2 mm 1 mps 671 mmHg 66%
    18:00 +24°C° 0.2 mm 1 mps 672 mmHg 76%
    19:00 +22°C° 0.2 mm 1 mps 672 mmHg 86%
    20:00 +22°C° 0.1 mm 1 mps 672 mmHg 86%
    21:00 +21°C° 0.1 mm 1 mps 672 mmHg 86%
    22:00 +21°C° 0.1 mm 1 mps 673 mmHg 86%
    23:00 +21°C° 0.1 mm 1 mps 673 mmHg 85%
    Show more